FW1924 Weather Reports


Display with metric or nautical units.
time (UTC)temp
F
wind
direction
speed
MPH
gust
MPH
rain 1hr
in
rain 24hr
in
rain mn
in
humidity
%
barometer
mb
20260831180028 75 123 11.0 21.0 0.00 0.00 0.00 46 1007.3
20260831174529 76 138 11.0 17.0 0.00 0.00 0.00 47 1007.3
20260831173034 76 161 11.0 17.0 0.00 0.00 0.00 48 1007.3
20260831171522 75 171 8.0 15.0 0.00 0.00 0.00 52 1007.4
20260831170011 74 141 4.0 15.0 0.00 0.00 0.00 53 1007.6
20260831164509 74 146 3.0 16.0 0.00 0.00 0.00 51 1007.8
20260831163053 74 150 5.0 14.0 0.00 0.00 0.00 49 1007.6
20260831161550 72 163 3.0 11.0 0.00 0.00 0.00 52 1007.3
20260831160038 70 169 9.0 16.0 0.00 0.00 0.00 55 1007.0
20260831154526 68 182 0.0 0.0 0.00 0.00 0.00 65 1007.1
20260831153020 66 173 0.0 2.0 0.00 0.00 0.00 67 1007.4
20260831151512 65 165 0.0 0.0 0.00 0.00 0.00 69 1007.5
20260831144559 64 139 0.0 4.0 0.00 0.00 0.00 72 1007.8
20260831143107 62 135 1.0 9.0 0.00 0.00 0.00 73 1007.8
20260831141548 61 180 0.0 3.0 0.00 0.00 0.00 72 1007.8
20260831140039 60 187 0.0 0.0 0.00 0.00 0.00 70 1007.7
20260831134535 59 190 0.0 0.0 0.00 0.00 0.00 69 1007.5
20260831133033 59 191 0.0 0.0 0.00 0.00 0.00 69 1007.5
20260831131519 58 186 0.0 0.0 0.00 0.00 0.00 70 1007.4
20260831130010 58 192 0.0 0.0 0.00 0.00 0.00 68 1007.4
20260831124504 58 192 0.0 0.0 0.00 0.01 0.00 68 1007.1
20260831123054 59 192 0.0 0.0 0.00 0.01 0.00 68 1007.1
20260831121545 59 191 0.0 0.0 0.00 0.01 0.00 69 1007.1
20260831120059 59 192 0.0 0.0 0.00 0.01 0.00 71 1007.2
20260831114549 59 191 0.0 0.0 0.00 0.01 0.00 71 1007.5
20260831113042 60 184 0.0 0.0 0.00 0.01 0.00 72 1007.5
20260831111532 60 202 0.0 0.0 0.00 0.01 0.00 71 1007.5
20260831110048 60 202 0.0 0.0 0.00 0.01 0.00 71 1007.3
20260831104539 60 204 0.0 0.0 0.00 0.01 0.00 71 1007.3
20260831103031 59 208 0.0 0.0 0.00 0.01 0.00 70 1007.2
20260831101528 59 207 0.0 0.0 0.00 0.01 0.00 71 1007.2
20260831100024 59 201 0.0 0.0 0.00 0.01 0.00 73 1007.1
20260831094514 59 202 0.0 0.0 0.00 0.01 0.00 72 1007.1
20260831093004 60 202 0.0 0.0 0.00 0.01 0.00 70 1007.0
20260831091555 60 202 0.0 0.0 0.00 0.01 0.00 69 1007.0
20260831084535 62 202 0.0 0.0 0.00 0.01 0.00 67 1006.9
20260831083025 62 202 0.0 0.0 0.00 0.01 0.00 66 1006.9
20260831081514 63 201 0.0 0.0 0.00 0.01 0.00 65 1007.0
20260831080013 63 200 0.0 0.0 0.00 0.01 0.00 66 1007.0
20260831074513 63 195 0.0 0.0 0.00 0.01 0.00 66 1007.1
20260831073022 63 185 0.0 0.0 0.00 0.01 0.00 66 1007.2
20260831071504 63 212 0.0 0.0 0.00 0.01 0.00 66 1007.2
20260831070056 63 218 0.0 0.0 0.00 0.01 0.00 66 1007.0
20260831064556 63 223 0.0 0.0 0.00 0.01 0.00 67 1007.0
20260831063045 63 254 0.0 0.0 0.00 0.01 0.00 67 1007.1
20260831061556 63 259 0.0 0.0 0.00 0.01 0.00 67 1007.2
20260831060041 63 260 0.0 0.0 0.00 0.01 0.00 67 1007.2
20260831054534 63 292 0.0 0.0 0.00 0.01 0.01 67 1007.1
20260831053027 63 302 0.0 0.0 0.00 0.01 0.01 66 1007.2
20260831051525 63 309 0.0 0.0 0.00 0.01 0.01 66 1007.2
20260831050110 63 313 0.0 0.0 0.00 0.01 0.01 66 1007.2
20260831044509 64 313 0.0 0.0 0.00 0.01 0.01 65 1006.9
20260831043010 65 313 0.0 0.0 0.00 0.01 0.01 64 1007.0
20260831041502 65 313 0.0 0.0 0.00 0.01 0.01 63 1006.8
20260831040001 66 313 0.0 0.0 0.00 0.01 0.01 63 1006.8
20260831034505 66 313 0.0 0.0 0.00 0.01 0.01 62 1006.7
20260831033003 66 314 0.0 0.0 0.00 0.01 0.01 61 1006.6
20260831031501 67 323 0.0 0.0 0.00 0.01 0.01 60 1006.4
20260831030110 67 327 0.0 0.0 0.00 0.01 0.01 59 1006.3
20260831024611 69 350 0.0 0.0 0.00 0.01 0.01 59 1006.2
20260831023038 70 350 0.0 0.0 0.00 0.01 0.01 57 1006.1
20260831021531 71 350 0.0 0.0 0.00 0.01 0.01 54 1005.9
20260831020023 72 350 0.0 0.0 0.00 0.01 0.01 50 1005.7
20260831014528 73 350 0.0 0.0 0.00 0.01 0.01 49 1005.8
20260831013006 74 350 0.0 0.0 0.00 0.01 0.01 49 1005.7
20260831011604 74 350 0.0 0.0 0.00 0.01 0.01 48 1005.9
20260831010049 74 321 0.0 1.0 0.00 0.01 0.01 48 1005.9
20260831004550 74 360 0.0 2.0 0.00 0.02 0.01 49 1005.9
20260831003014 75 360 0.0 1.0 0.00 0.02 0.01 48 1006.0
20260831001506 75 355 1.0 9.0 0.00 0.02 0.01 47 1006.0
20260831000105 76 355 1.0 11.0 0.00 0.02 0.01 47 1005.9
20260830234605 77 360 0.0 14.0 0.00 0.02 0.01 47 1006.0
20260830233058 78 342 0.0 10.0 0.00 0.02 0.01 46 1006.1
20260830231519 80 17 1.0 8.0 0.00 0.02 0.01 43 1006.2
20260830230020 80 355 1.0 12.0 0.00 0.02 0.01 44 1006.3
20260830224508 80 22 0.0 10.0 0.00 0.02 0.01 44 1006.5
20260830223101 80 333 2.0 10.0 0.00 0.02 0.01 42 1006.5
20260830221558 82 11 1.0 11.0 0.00 0.02 0.01 40 1006.5
20260830220049 82 348 0.0 10.0 0.00 0.02 0.01 38 1006.7
20260830214550 82 345 0.0 15.0 0.00 0.03 0.01 41 1006.7
20260830213040 83 347 0.0 10.0 0.00 0.03 0.01 40 1006.8
20260830211533 82 242 0.0 9.0 0.00 0.03 0.01 40 1006.9
20260830210034 80 297 0.0 10.0 0.00 0.03 0.01 42 1007.2
20260830204526 78 355 2.0 9.0 0.00 0.03 0.01 46 1007.1
20260830203029 76 32 0.0 0.0 0.00 0.03 0.01 51 1007.3
20260830201508 75 327 0.0 11.0 0.00 0.03 0.01 49 1007.3
20260830200100 77 11 0.0 1.0 0.00 0.03 0.01 47 1007.1
20260830194551 80 61 0.0 0.0 0.00 0.04 0.01 44 1007.5
20260830193051 83 153 1.0 10.0 0.00 0.04 0.01 44 1007.5
20260830191539 82 180 4.0 12.0 0.00 0.04 0.01 47 1007.5
20260830190034 81 150 2.0 16.0 0.00 0.04 0.01 47 1007.8
20260830184525 80 182 4.0 11.0 0.00 0.04 0.01 48 1008.0
20260830183014 80 173 0.0 11.0 0.00 0.04 0.01 50 1008.1
20260830181503 79 105 0.0 11.0 0.00 0.04 0.01 52 1008.3